When you browse on this site, cookies collect data to enhance your experience and personalize the content and advertising you see.
Visit our Privacy Policy to learn more. By continuing to use the site, you agree to this use of cookies and data.
  • In Österreich
  • Länderverzeichnis
  • Für 7 Tage
  • Wassertemperatur
  • Wetterkarte
  • News
  • Widgets
  • user-avatar
    Anmelden

    Stündliche Wetter Lyahovo

    Heute, 25 Februar, Dienstag

    Zeit Temperatur Niederschläge Wind Luftdruck Luftfeuchtigkeit
    00:00 -2°C° 0 mm 3 m/S 737 mmHg 76%
    01:00 -2°C° 0 mm 3 m/S 737 mmHg 76%
    02:00 -2°C° 0 mm 3 m/S 737 mmHg 77%
    03:00 -2°C° 0 mm 3 m/S 737 mmHg 79%
    04:00 -2°C° 0 mm 2 m/S 737 mmHg 81%
    05:00 -3°C° 0 mm 2 m/S 737 mmHg 82%
    06:00 -3°C° 0 mm 2 m/S 738 mmHg 83%
    07:00 -3°C° 0 mm 2 m/S 738 mmHg 83%
    08:00 -3°C° 0 mm 2 m/S 738 mmHg 84%
    09:00 -2°C° 0 mm 2 m/S 737 mmHg 77%
    10:00 -1°C° 0 mm 3 m/S 737 mmHg 69%
    11:00 0°C° 0 mm 3 m/S 737 mmHg 61%
    12:00 +1°C° 0 mm 3 m/S 737 mmHg 59%
    13:00 +1°C° 0 mm 3 m/S 737 mmHg 57%
    14:00 +3°C° 0 mm 2 m/S 736 mmHg 54%
    15:00 +2°C° 0 mm 2 m/S 736 mmHg 59%
    16:00 +1°C° 0 mm 2 m/S 735 mmHg 63%
    17:00 +1°C° 0 mm 2 m/S 735 mmHg 68%
    18:00 -1°C° 0 mm 2 m/S 735 mmHg 73%
    19:00 -1°C° 0 mm 3 m/S 734 mmHg 77%
    20:00 -1°C° 0 mm 3 m/S 734 mmHg 82%
    21:00 -2°C° 0.2 mm 4 m/S 733 mmHg 86%
    22:00 -2°C° 0.2 mm 4 m/S 732 mmHg 91%
    23:00 -2°C° 0.2 mm 5 m/S 731 mmHg 96%

    Morgen, 26 Februar, Mittwoch

    Zeit Temperatur Niederschläge Wind Luftdruck Luftfeuchtigkeit
    00:00 -1°C° 0.2 mm 4 m/S 731 mmHg 96%
    01:00 -1°C° 0.2 mm 4 m/S 730 mmHg 96%
    02:00 0°C° 0.2 mm 4 m/S 730 mmHg 96%
    03:00 0°C° 0.2 mm 4 m/S 729 mmHg 95%
    04:00 0°C° 0.2 mm 4 m/S 729 mmHg 95%
    05:00 +1°C° 0.2 mm 4 m/S 728 mmHg 94%
    06:00 +1°C° 0.3 mm 4 m/S 728 mmHg 95%
    07:00 +1°C° 0.3 mm 4 m/S 728 mmHg 95%
    08:00 +1°C° 0.3 mm 4 m/S 727 mmHg 96%
    09:00 +2°C° 0.9 mm 3 m/S 727 mmHg 96%
    10:00 +2°C° 0.9 mm 3 m/S 727 mmHg 97%
    11:00 +2°C° 0.9 mm 2 m/S 727 mmHg 98%
    12:00 +3°C° 0 mm 2 m/S 728 mmHg 95%
    13:00 +3°C° 0 mm 2 m/S 728 mmHg 92%
    14:00 +3°C° 0 mm 2 m/S 728 mmHg 89%
    15:00 +3°C° 0 mm 2 m/S 728 mmHg 89%
    16:00 +3°C° 0 mm 1 m/S 728 mmHg 89%
    17:00 +3°C° 0 mm 1 m/S 728 mmHg 89%
    18:00 +3°C° 0 mm 1 m/S 729 mmHg 90%
    19:00 +2°C° 0 mm 1 m/S 729 mmHg 90%
    20:00 +2°C° 0 mm 1 m/S 729 mmHg 90%
    21:00 +2°C° 0 mm 1 m/S 729 mmHg 90%
    22:00 +2°C° 0 mm 1 m/S 729 mmHg 91%
    23:00 +2°C° 0 mm 1 m/S 729 mmHg 91%

    übermorgen, 27 Februar, Donnerstag

    Zeit Temperatur Niederschläge Wind Luftdruck Luftfeuchtigkeit
    00:00 +2°C° 0 mm 1 m/S 729 mmHg 91%
    01:00 +2°C° 0 mm 1 m/S 729 mmHg 92%
    02:00 +2°C° 0 mm 1 m/S 729 mmHg 92%
    03:00 +1°C° 0 mm 1 m/S 729 mmHg 92%
    04:00 +1°C° 0 mm 1 m/S 728 mmHg 93%
    05:00 +1°C° 0 mm 1 m/S 728 mmHg 93%
    06:00 +1°C° 0 mm 1 m/S 728 mmHg 93%
    07:00 +1°C° 0 mm 1 m/S 728 mmHg 93%
    08:00 +1°C° 0 mm 2 m/S 728 mmHg 93%
    09:00 +1°C° 0 mm 2 m/S 728 mmHg 91%
    10:00 +2°C° 0 mm 2 m/S 728 mmHg 89%
    11:00 +3°C° 0 mm 2 m/S 728 mmHg 87%
    12:00 +2°C° 0.3 mm 2 m/S 728 mmHg 89%
    13:00 +1°C° 0.3 mm 3 m/S 728 mmHg 91%
    14:00 0°C° 0.3 mm 3 m/S 728 mmHg 92%
    15:00 0°C° 0 mm 3 m/S 728 mmHg 88%
    16:00 0°C° 0 mm 3 m/S 728 mmHg 84%
    17:00 +1°C° 0 mm 2 m/S 728 mmHg 80%
    18:00 -1°C° 0 mm 3 m/S 729 mmHg 83%
    19:00 -1°C° 0 mm 3 m/S 729 mmHg 87%
    20:00 -1°C° 0 mm 3 m/S 729 mmHg 90%
    21:00 -2°C° 0 mm 3 m/S 730 mmHg 89%
    22:00 -2°C° 0 mm 3 m/S 730 mmHg 88%
    23:00 -2°C° 0 mm 3 m/S 730 mmHg 87%

    28 Februar, Freitag

    Zeit Temperatur Niederschläge Wind Luftdruck Luftfeuchtigkeit
    00:00 -2°C° 0 mm 3 m/S 730 mmHg 87%
    01:00 -4°C° 0 mm 3 m/S 730 mmHg 86%
    02:00 -4°C° 0 mm 3 m/S 730 mmHg 85%
    03:00 -4°C° 0 mm 3 m/S 730 mmHg 85%
    04:00 -4°C° 0 mm 3 m/S 731 mmHg 84%
    05:00 -4°C° 0 mm 3 m/S 731 mmHg 84%
    06:00 -4°C° 0 mm 3 m/S 731 mmHg 82%
    07:00 -4°C° 0 mm 3 m/S 731 mmHg 80%
    08:00 -4°C° 0 mm 3 m/S 732 mmHg 77%
    09:00 -2°C° 0 mm 3 m/S 732 mmHg 75%
    10:00 -2°C° 0 mm 3 m/S 732 mmHg 72%
    11:00 -2°C° 0 mm 4 m/S 732 mmHg 69%
    12:00 -2°C° 0 mm 4 m/S 733 mmHg 68%
    13:00 -2°C° 0 mm 4 m/S 733 mmHg 66%
    14:00 -2°C° 0 mm 4 m/S 733 mmHg 65%
    15:00 -2°C° 0 mm 4 m/S 733 mmHg 66%
    16:00 -1°C° 0 mm 3 m/S 734 mmHg 67%
    17:00 -2°C° 0 mm 3 m/S 734 mmHg 68%
    18:00 -2°C° 0 mm 3 m/S 734 mmHg 70%
    19:00 -2°C° 0 mm 3 m/S 735 mmHg 72%
    20:00 -3°C° 0 mm 2 m/S 735 mmHg 74%
    21:00 -3°C° 0 mm 2 m/S 735 mmHg 75%
    22:00 -3°C° 0 mm 2 m/S 735 mmHg 76%
    23:00 -3°C° 0 mm 2 m/S 735 mmHg 77%

    29 Februar, Samstag

    Zeit Temperatur Niederschläge Wind Luftdruck Luftfeuchtigkeit
    00:00 -3°C° 0 mm 2 m/S 735 mmHg 78%
    01:00 -4°C° 0 mm 3 m/S 735 mmHg 79%
    02:00 -4°C° 0 mm 3 m/S 736 mmHg 80%
    03:00 -2°C° 0 mm 3 m/S 736 mmHg 82%
    04:00 -2°C° 0 mm 3 m/S 736 mmHg 84%
    05:00 -2°C° 0 mm 3 m/S 736 mmHg 86%
    06:00 -2°C° 0 mm 3 m/S 736 mmHg 83%
    07:00 -2°C° 0 mm 3 m/S 736 mmHg 80%
    08:00 -4°C° 0 mm 3 m/S 736 mmHg 77%
    09:00 -2°C° 0 mm 3 m/S 737 mmHg 71%
    10:00 -2°C° 0 mm 3 m/S 737 mmHg 65%
    11:00 -1°C° 0 mm 3 m/S 737 mmHg 60%
    12:00 -1°C° 0 mm 3 m/S 737 mmHg 58%
    13:00 0°C° 0 mm 3 m/S 737 mmHg 56%
    14:00 0°C° 0 mm 3 m/S 737 mmHg 54%
    15:00 -1°C° 0 mm 3 m/S 738 mmHg 58%
    16:00 -1°C° 0 mm 2 m/S 738 mmHg 63%
    17:00 0°C° 0 mm 1 m/S 738 mmHg 67%
    18:00 0°C° 0 mm 1 m/S 738 mmHg 69%
    19:00 -2°C° 0 mm 2 m/S 738 mmHg 70%
    20:00 -3°C° 0 mm 2 m/S 738 mmHg 71%
    21:00 -3°C° 0 mm 2 m/S 739 mmHg 72%
    22:00 -3°C° 0 mm 2 m/S 739 mmHg 73%
    23:00 -3°C° 0 mm 2 m/S 739 mmHg 73%

    1 März, Sonntag

    Zeit Temperatur Niederschläge Wind Luftdruck Luftfeuchtigkeit
    00:00 -3°C° 0 mm 2 m/S 739 mmHg 75%
    01:00 -3°C° 0 mm 2 m/S 739 mmHg 76%
    02:00 -3°C° 0 mm 2 m/S 739 mmHg 77%
    03:00 -3°C° 0 mm 2 m/S 739 mmHg 81%
    04:00 -3°C° 0 mm 2 m/S 739 mmHg 86%
    05:00 -3°C° 0 mm 2 m/S 739 mmHg 91%
    06:00 -3°C° 0 mm 2 m/S 739 mmHg 90%
    07:00 -2°C° 0 mm 2 m/S 739 mmHg 89%
    08:00 -2°C° 0 mm 2 m/S 740 mmHg 88%
    09:00 -2°C° 0 mm 3 m/S 740 mmHg 83%
    10:00 -1°C° 0 mm 3 m/S 740 mmHg 79%
    11:00 -1°C° 0 mm 3 m/S 740 mmHg 75%
    12:00 -1°C° 0 mm 4 m/S 740 mmHg 73%
    13:00 -1°C° 0 mm 4 m/S 740 mmHg 71%
    14:00 -1°C° 0 mm 4 m/S 739 mmHg 70%
    15:00 -1°C° 0 mm 4 m/S 739 mmHg 70%
    16:00 -1°C° 0 mm 4 m/S 739 mmHg 70%
    17:00 -1°C° 0 mm 4 m/S 738 mmHg 71%
    18:00 -1°C° 0.3 mm 4 m/S 738 mmHg 79%
    19:00 -1°C° 0.3 mm 5 m/S 738 mmHg 88%
    20:00 -3°C° 0.3 mm 6 m/S 738 mmHg 96%
    21:00 -2°C° 0.8 mm 5 m/S 738 mmHg 97%
    22:00 -2°C° 0.8 mm 4 m/S 738 mmHg 97%
    23:00 -2°C° 0.8 mm 4 m/S 738 mmHg 97%
    Mehr zeigen